This is the latest recevied weather packets stored in our database for station/object N7WSS. If no packets are shown the sender has not sent any weather packets the latest 10 day(s).
| Time | Temp. | Humidity | Pressure | Rain* | Wind** | Luminosity | Snow |
|---|---|---|---|---|---|---|---|
| 1777659657 | 25.56° C | 29% | 1011.8 hPa | 0 mm | - | - | - |
| 1777659354 | 24.44° C | 30% | 1011.9 hPa | 0 mm | - | - | - |
| 1777659051 | 24.44° C | 29% | 1011.8 hPa | 0 mm | - | - | - |
| 1777658749 | 24.44° C | 30% | 1011.8 hPa | 0 mm | - | - | - |
| 1777658444 | 24.44° C | 31% | 1011.8 hPa | 0 mm | - | - | - |
| 1777658141 | 24.44° C | 32% | 1012.1 hPa | 0 mm | - | - | - |
| 1777657838 | 24.44° C | 31% | 1012 hPa | 0 mm | - | - | - |
| 1777657535 | 25° C | 31% | 1012 hPa | 0 mm | - | - | - |
| 1777657233 | 23.33° C | 33% | 1011.9 hPa | 0 mm | - | - | - |
| 1777656930 | 23.89° C | 33% | 1012.1 hPa | 0 mm | - | - | - |
| 1777656627 | 23.33° C | 34% | 1012.3 hPa | 0 mm | - | - | - |
| 1777656322 | 23.89° C | 34% | 1012.1 hPa | 0 mm | - | - | - |
| 1777656018 | 23.33° C | 35% | 1012.1 hPa | 0 mm | - | - | - |
| 1777655714 | 22.78° C | 36% | 1012 hPa | 0 mm | - | - | - |
| 1777655411 | 23.33° C | 35% | 1012.1 hPa | 0 mm | - | - | - |
| 1777655108 | 22.78° C | 37% | 1012.1 hPa | 0 mm | - | - | - |
| 1777654805 | 22.78° C | 36% | 1012.1 hPa | 0 mm | - | - | - |
| 1777654503 | 23.33° C | 36% | 1012.1 hPa | 0 mm | - | - | - |
| 1777654200 | 22.22° C | 38% | 1012 hPa | 0 mm | - | - | - |
| 1777653898 | 21.67° C | 40% | 1012.1 hPa | 0 mm | - | - | - |
| 1777653594 | 22.22° C | 39% | 1012 hPa | 0 mm | - | - | - |
| 1777653290 | 21.67° C | 38% | 1011.9 hPa | 0 mm | - | - | - |
| 1777652987 | 22.22° C | 39% | 1012 hPa | 0 mm | - | - | - |
| 1777652684 | 22.22° C | 39% | 1012 hPa | 0 mm | - | - | - |
| 1777652381 | 21.67° C | 41% | 1012.1 hPa | 0 mm | - | - | - |
* Rain latest hour (hover to see other rain measurements)
** Current wind speed in m/s (hover to see current wind gust speed)